FALCON 9 DEB (45717 NORAD) Tracking and Keplerian Element Data

This shows tracking and keplerian element data for the satellite.

Feedback or suggestion? Click here.




ElementValue
Catalog45717
NameFALCON 9 DEB
Epoch Orbit472
Epoch Day185.41360695
Epoch Year2020
RAAN18.5505
Inclination52.9982
Eccentricity0.0051735
Argument of Perigee162.5346
Mean Anonmoly197.7485
Mean Motion16.17686759
Decay Rate0.0082628
L11 45717U 20035BN 20185.41360695 .00826280 11738-4 37878-3 0 9990
L22 45717 52.9982 18.5505 0051735 162.5346 197.7485 16.17686759 4723

Live tracking and technical data element details for FALCON 9 DEB (NORAD 45717). FALCON 9 DEB can be tracked NOW for your location showing map with azimuth and elevation plus other details from your city location.

Track the satellite on the map from your city or location and see movement details for azimuth, elevation, latitude, longitude, range, height, and movement on the map or in text.







IsCatalogInMostPopularTable: catalog: 45717, numindb: 3
Update: records affected: 1



GetName: 45717 FALCON 9 DEB

Hit Count: updated at: Sat, 04 Jul 2020 02:00:30 GMT